Torna al catalogo

FENGYUN 1C DEB

AttivoSSO
NORAD 37928·DEBRIS·🇨🇳 China

Lanciato May 10, 1999 da Taiyuan Satellite Launch Center

Loading…

Prossimi Passaggi (prossime 24 ore)

TLE

AggiornatoSource: Space-Track

Epoca: Sep 14, 2026, 03:32 UTC

1 37928U 99025EPD 26257.14755615  .00000986  00000-0  33252-3 0  9991
2 37928  98.8822 146.4279 0070772 301.7829  57.6476 14.37979339851491

Traccia FENGYUN 1C DEB in tempo reale con AllMySat

Download on the App Store